DMSP 5D-2 F11 DEB, 35534

Orbit data source: Space-Track

DMSP 5D-2 F11 DEB, 35534 is space debris in SSO originally from a launch on Thu, 28 Nov 1991 UTC launched from the Air Force Western Test Range (AFWTR). Debris objects in space refer to the collection of defunct objects orbiting the Earth. Examples of debris include non-operational satellites, rocket bodies, and fragments generated from explosions, collisions, or faulty payload assembly.

Loading next visibility...
Identifier
35534, 1991-082CQ
Orbit
SSO
Country
Flag of USUS
Related business
Manufacturer
Unknown
Mission
Spacecraft
Bus & Motor
Unknown
Mass
Unknown
Launch date (UTC)
1991-11-28 (34 years ago)
Launch vehicle
Unknown
Launch site
Air Force Western Test Range (AFWTR)
Object type
Payload
Rocket body
Debris
Shape & HBR
Unknown shape, 0.1 m
Radar Cross Section
Small (<0.1 m²)

Expand to show TLE details & history
Last TLE update: 1 day ago

TLE from 1 day ago
0 DMSP 5D-2 F11 DEB
1 35534U 91082CQ  26120.22853985  .00037280  00000-0  44483-2 0  9998
2 35534  98.8044 214.8940 0025492 152.8170 236.5453 14.83899316752665
Epoch: 2026-04-30T05:29Z
TLE epoch observation values (Epoch: 2026-04-30T05:29:05.843Z)
Latitude
28.79178°
Longitude
-90.41494°
Altitude
630.528 km
Speed
7.54 km/s
True Right ascension
14h 00m 09s
True Declination
28° 38' 39"
Sunlit
Object was in full shadow at epoch
Visualization orbit readout
Latitude
Unknown
Longitude
Unknown
Altitude
Unknown
Speed
Unknown
Apparent Right ascension
Unknown
Apparent Declination
Unknown
Sunlit
N/A
Visualization observer readout
Local Sidereal Time
20:52:20
Azimuth
Unknown
Elevation
Unknown
Doppler factor
Unknown
Orbital elements
Apogee altitude
631.946 km
Perigee altitude
596.297 km
Semi-major axis
6,992.258 km
Eccentricity
0.00255
Inclination
98.8044°
RAAN
214.894°
Arg. of periapsis
152.817°
True anomaly
236.30201°
Mean anomaly
236.5453°
Eccentric anomaly
236.42361°
Mean motion
3.71208 °/min
Orbital period
96.98 mins
BSTAR
0.0044483
Loading maneuver chart data...
Computing Atmospheric mass density...

Documentation

Showing up to 5 results
|